Theta_e
319 319 321 322 321 320 318 317 316 315 315 314 313 313 313 313 313 312 312 312 312 312 312 312 312 312 312 312 312 311 311 311 311 311 311 311 310 310 309 308 307 305
317 319 320 319 318 316 315 315 315 314 314 313 313 313 313 313 313 313 313 313 313 313 313 312 312 312 312 312 312 311 311 311 311 310 309 308 307 306 305 304 302 301
315 316 316 315 314 314 314 314 314 313 313 313 313 313 313 313 313 313 313 313 313 313 312 312 312 312 311 311 311 310 310 309 308 307 305 304 303 302 302 301 300 299
313 313 313 313 314 314 314 313 313 313 313 313 313 313 313 313 313 313 313 312 312 312 312 312 311 311 310 310 309 308 307 305 304 303 302 301 301 300 299 298 297 297
311 312 313 314 314 313 313 313 313 313 313 313 313 313 313 313 313 312 312 312 312 311 311 311 310 309 308 307 306 305 304 303 302 301 300 299 298 298 297 296 296 296
313 314 314 313 313 313 313 313 313 313 313 313 313 313 313 312 312 312 312 312 311 311 310 309 308 307 305 304 304 303 302 301 300 298 297 297 297 296 296 296 296 296
314 314 313 313 313 313 313 313 313 313 313 313 313 312 312 312 312 311 311 311 310 309 309 307 306 305 304 303 303 302 300 298 297 297 296 296 296 296 296 296 296 295
313 313 313 313 313 313 313 313 313 313 313 312 312 312 312 311 311 311 310 309 308 307 306 305 304 304 303 303 301 299 298 297 296 296 296 296 296 296 296 296 296 295
313 313 313 313 313 313 313 313 313 313 312 312 312 311 311 310 310 309 308 307 306 305 304 304 304 303 302 300 298 297 296 296 296 296 296 296 296 296 296 295 295 295
313 313 313 313 313 313 313 313 312 312 312 311 311 311 310 309 308 307 306 305 304 303 303 303 303 301 299 298 296 296 296 296 296 296 296 296 296 295 295 295 295 295
313 313 313 313 313 313 312 312 312 311 311 311 310 310 309 308 307 306 304 303 303 303 303 302 301 299 297 296 296 296 296 296 295 295 295 295 295 295 294 294 294 294
313 313 313 313 312 312 312 312 311 311 311 310 309 308 307 306 305 304 303 303 303 302 301 300 298 297 297 296 296 295 295 295 295 294 294 294 294 294 294 294 293 293
313 313 313 312 312 312 311 311 310 310 310 308 306 306 305 304 303 303 302 302 302 301 299 298 297 297 296 296 295 295 295 294 294 294 294 294 294 294 293 293 293 292
313 312 312 312 311 311 310 310 310 309 307 306 305 304 303 303 302 302 301 301 300 299 298 297 296 296 296 295 295 294 294 294 294 294 294 294 293 293 293 293 292 292
312 312 311 311 311 310 310 309 308 306 305 305 304 303 302 302 301 301 300 299 298 298 297 296 296 295 295 295 294 294 294 294 293 293 293 293 293 293 293 292 292 292
312 311 311 310 310 309 308 307 305 304 304 303 302 302 301 301 300 299 299 298 297 296 296 295 295 295 294 294 294 294 293 293 293 293 293 292 293 292 292 292 292 292
311 311 310 310 309 308 307 305 304 303 302 302 301 300 300 299 298 298 298 297 296 295 295 295 294 294 294 294 294 293 293 293 292 292 292 292 292 292 292 292 292 292
311 311 310 309 307 306 305 304 303 302 301 300 300 299 299 298 297 297 296 295 295 295 294 294 294 294 294 293 293 293 293 292 292 292 292 292 292 292 292 292 292 291
310 310 309 307 305 304 303 302 302 301 300 300 299 298 298 297 296 296 295 295 294 294 294 294 294 293 293 293 293 292 292 292 292 292 292 292 292 292 292 291 291 291
310 308 307 305 304 302 302 301 301 300 299 299 298 297 297 296 295 295 294 294 294 294 294 294 293 293 293 293 292 292 292 292 292 291 291 291 291 291 291 291 291 290
308 307 305 304 302 301 301 300 300 299 298 298 297 296 296 295 295 294 294 294 294 294 293 293 293 293 292 292 292 292 292 291 291 291 291 291 291 291 291 290 290 290
307 305 304 303 302 301 300 299 299 298 297 297 296 296 295 294 294 294 293 293 293 293 293 292 292 292 292 292 292 291 291 291 291 291 291 291 291 290 290 290 290 289
305 304 303 301 301 300 299 299 298 297 296 296 295 295 294 294 293 293 293 293 292 292 292 292 292 292 292 291 291 291 291 291 291 291 291 291 290 290 290 289 289 289
304 302 301 300 300 299 299 298 297 296 296 295 295 294 294 293 293 293 292 292 292 291 291 291 292 291 291 291 290 290 290 290 290 290 290 290 290 289 289 289 289 288
302 300 300 299 299 299 298 297 296 296 295 295 294 294 293 293 292 292 292 291 291 291 291 291 291 291 290 290 290 290 290 290 290 290 290 289 289 289 289 289 288 288
300 299 298 298 298 298 297 296 295 295 295 294 294 293 293 292 292 291 291 291 291 291 291 291 291 290 290 290 290 290 290 290 290 289 289 289 289 289 289 288 288 288
Wind_Speed
29 28 29 28 27 26 24 22 20 18 17 15 12 11 11 11 10 9 8 6 5 5 4 4 4 4 3 2 1 1 0 1 1 2 2 3 3 4 4 5 6 7
29 29 29 28 26 24 22 20 19 17 15 14 13 13 11 10 8 7 6 5 4 4 4 3 3 2 2 2 2 2 2 3 3 3 3 4 4 5 5 6 7 7
30 29 28 26 24 22 21 19 18 17 16 15 13 11 9 7 6 5 5 4 3 3 3 3 3 3 3 3 3 3 2 2 2 2 3 3 4 4 5 6 8 9
28 27 25 24 23 22 21 20 20 18 17 14 11 8 7 6 6 5 4 4 4 3 3 3 3 3 3 2 2 2 1 1 1 3 4 5 6 7 7 8 9 10
25 24 24 23 23 22 22 21 20 17 14 11 9 8 8 7 7 6 6 5 5 4 4 3 3 2 2 1 1 0 1 2 3 4 5 7 7 8 9 9 9 11
24 24 24 24 24 23 22 20 17 14 12 10 10 9 9 8 8 7 7 7 6 6 5 4 3 3 2 1 1 2 3 3 4 5 5 7 8 9 9 10 11 13
25 25 25 25 24 22 20 17 15 13 12 12 11 11 10 10 10 9 9 8 7 6 5 5 4 3 2 2 3 4 4 4 5 5 5 7 8 10 11 13 15 16
26 26 26 25 23 21 18 16 15 14 14 13 13 13 12 12 11 10 10 9 8 7 6 5 4 3 3 4 5 5 5 5 5 6 7 9 10 12 14 16 18 19
27 27 26 24 21 19 18 17 16 16 15 15 15 14 14 13 12 11 10 9 8 7 6 4 4 4 4 5 6 6 6 6 7 8 10 12 13 15 17 18 19 21
27 26 23 21 20 19 18 18 18 18 17 17 16 15 14 14 13 12 11 9 8 7 5 4 4 5 5 6 6 6 7 8 10 11 12 14 15 16 17 19 20 22
25 23 22 21 20 20 20 20 19 19 19 18 17 16 15 14 13 12 11 9 8 7 6 5 6 6 6 6 7 8 9 10 12 12 13 14 15 16 18 20 22 23
23 22 22 22 21 21 21 21 21 20 19 19 17 16 15 15 13 12 11 9 8 7 6 6 7 7 7 7 8 9 10 11 12 13 14 14 16 18 19 21 23 24
23 23 23 23 22 22 22 22 21 20 19 19 18 16 15 15 13 12 10 9 7 7 7 7 7 7 8 8 9 10 11 12 13 14 15 16 17 19 20 22 23 24
24 24 24 24 23 23 22 22 21 20 19 19 18 17 16 14 13 11 10 8 7 7 7 7 7 8 9 9 10 11 11 12 14 15 17 18 19 20 21 22 24 26
25 25 25 24 24 23 22 22 21 21 20 19 18 18 16 14 12 11 9 9 8 7 7 7 8 8 9 10 11 11 12 13 15 17 19 20 20 20 22 24 26 27
26 26 25 25 24 23 23 22 22 21 20 20 18 17 15 13 12 11 9 9 8 7 7 7 8 9 10 11 12 12 14 15 17 18 19 21 22 23 25 26 27 28
27 26 26 25 25 24 24 23 23 22 20 19 17 15 14 13 11 10 9 8 7 7 8 8 9 10 11 12 12 13 15 16 18 19 20 22 24 26 27 27 28 29
27 27 27 26 26 26 25 24 23 22 20 18 17 15 14 12 11 10 9 8 8 8 9 9 9 10 11 12 13 15 16 18 19 21 22 24 26 27 27 28 29 30
29 29 28 28 28 27 26 25 23 22 20 18 17 15 13 12 11 10 9 9 9 9 9 9 9 10 11 13 15 16 17 19 20 22 24 26 26 26 27 28 30 32
30 30 29 29 29 27 26 25 23 21 20 18 16 14 13 12 11 11 10 10 9 9 9 9 10 11 12 14 16 17 19 20 21 23 25 25 25 26 27 29 31 33
32 31 31 30 29 28 26 24 23 21 19 18 16 14 14 13 12 11 10 9 9 9 9 9 10 12 14 16 17 18 19 21 22 24 24 25 25 26 28 30 31 33
33 32 32 31 30 28 27 25 23 21 19 17 16 15 14 13 12 11 10 9 8 8 9 10 11 13 15 17 18 19 20 22 23 24 24 24 25 27 29 30 32 34
34 33 32 31 30 29 27 25 23 21 19 18 16 15 14 13 12 11 9 9 8 8 9 10 12 15 16 17 18 20 21 23 23 24 24 25 26 28 30 31 33 34
35 34 32 31 30 28 26 25 23 21 19 18 17 15 14 13 12 10 9 9 8 8 10 11 14 15 17 18 19 21 23 23 23 24 25 26 27 29 31 32 34 34
35 34 32 31 29 28 26 24 22 21 19 18 16 15 14 13 12 10 9 9 9 9 11 13 15 16 17 19 20 22 23 23 24 25 26 27 29 30 32 33 34 35
35 34 32 31 29 27 25 24 22 21 19 18 16 15 14 13 11 10 10 9 9 10 12 14 16 17 18 20 21 22 23 23 24 25 27 28 30 31 33 34 35 35
Wind_Direction
231 231 231 232 234 236 236 234 228 221 216 209 200 195 195 195 195 196 199 205 210 214 220 230 239 243 247 249 249 265 316 352 354 356 358 359 0 4 3 355 351 353
226 226 228 229 229 229 225 220 213 208 200 191 186 185 184 182 179 181 185 187 188 190 190 193 191 180 165 142 116 86 70 55 42 35 22 14 10 5 359 351 344 337
223 224 224 224 222 217 211 203 197 192 187 184 183 178 172 172 176 180 182 183 184 186 180 170 155 140 132 123 112 96 81 61 37 21 8 359 349 342 338 331 326 322
221 220 218 213 208 202 195 189 185 183 181 179 176 171 173 179 184 185 183 184 182 177 169 157 146 141 136 122 110 103 90 60 3 346 335 331 328 327 328 327 328 326
214 209 204 198 192 187 183 181 180 177 174 173 172 177 182 181 181 181 179 181 179 172 168 164 163 160 154 143 133 149 336 336 334 332 328 326 326 328 330 332 333 330
200 196 190 184 181 179 178 176 173 171 171 174 178 179 180 179 179 179 180 183 182 181 182 180 180 177 178 210 276 306 319 323 322 324 324 325 327 329 330 331 330 329
186 183 179 178 178 176 174 171 169 172 174 177 179 178 178 179 180 181 183 185 185 189 191 189 194 202 226 268 294 307 312 313 315 320 323 324 328 330 330 330 330 331
178 177 175 176 176 173 171 171 173 175 177 178 179 179 177 178 182 182 182 186 188 191 192 192 206 231 262 288 299 303 304 306 311 320 325 328 330 330 329 329 330 330
176 177 177 175 173 172 173 175 177 177 178 179 180 181 180 179 181 183 185 189 190 191 195 204 231 260 278 290 294 296 302 309 317 323 326 328 328 327 327 327 327 328
178 178 176 174 174 177 178 178 180 180 178 179 181 183 183 182 183 186 188 189 189 195 209 225 250 269 279 287 293 302 312 316 321 323 324 326 326 327 328 327 328 328
179 178 177 178 179 180 181 181 181 181 179 179 183 184 184 185 188 188 188 191 198 210 227 246 262 272 278 288 299 308 314 316 319 322 324 328 329 330 330 330 330 329
181 182 182 183 183 183 183 182 181 181 180 180 182 185 187 188 188 189 192 199 212 226 242 256 265 274 281 292 302 306 311 316 319 324 326 329 331 331 332 332 331 331
185 186 186 185 185 184 183 182 181 182 182 182 182 186 190 191 191 195 201 209 222 236 249 260 268 278 287 295 302 306 311 316 320 324 327 329 331 332 332 332 331 331
189 188 187 186 185 185 183 183 183 183 183 185 187 190 192 194 197 202 208 217 229 240 250 263 272 282 291 297 301 306 311 316 320 324 326 328 331 332 332 332 331 331
191 188 186 185 185 184 184 184 184 184 186 190 191 192 194 197 201 207 214 223 232 243 253 264 276 284 290 292 297 305 312 318 322 323 326 328 330 332 332 332 332 332
192 189 186 186 185 186 186 185 186 187 190 192 192 192 196 200 205 210 218 227 233 244 255 265 275 280 285 290 298 308 314 319 322 323 326 328 330 332 333 333 334 334
193 190 188 188 188 188 188 188 190 191 192 193 192 195 199 203 208 214 219 227 232 241 251 259 269 276 284 295 304 311 316 319 321 324 327 330 331 333 333 334 334 335
194 193 191 190 189 190 191 191 193 193 192 194 196 199 204 206 211 215 216 222 228 236 247 256 268 280 290 300 307 312 316 319 323 326 329 330 331 332 332 333 334 335
196 195 192 191 191 191 192 192 192 193 193 196 199 202 206 208 211 213 214 221 229 237 250 262 275 286 294 302 308 312 316 321 325 327 328 328 328 329 330 332 334 334
197 195 193 193 192 192 193 193 193 195 196 198 201 203 206 208 210 212 215 223 233 244 257 268 280 290 298 304 308 313 318 322 324 324 324 324 325 327 330 332 333 334
197 195 195 195 194 193 194 194 195 197 198 200 202 204 207 208 210 213 218 226 239 252 264 275 286 294 301 306 309 314 318 320 320 320 320 321 323 328 331 332 333 334
198 197 196 196 196 195 195 196 197 198 199 201 203 204 207 210 213 216 221 230 242 256 269 280 291 298 302 306 309 313 315 315 316 317 318 321 325 329 331 332 333 334
199 199 198 197 197 197 197 197 199 199 200 202 203 205 208 211 215 220 225 234 244 258 272 284 294 299 302 305 309 311 312 312 314 316 319 322 326 329 331 333 334 336
199 199 199 198 198 199 199 199 199 199 200 201 202 206 209 212 217 223 230 239 249 261 275 287 294 298 300 304 307 309 310 312 314 317 320 323 326 329 332 334 335 337
200 199 200 200 200 200 200 200 200 199 200 201 203 207 211 214 219 224 232 241 253 267 280 288 292 295 299 303 306 308 309 311 315 318 321 324 327 330 333 334 335 337
200 199 199 201 202 202 200 200 200 200 201 202 204 207 211 216 221 225 232 242 256 271 281 286 289 293 298 302 305 307 309 313 316 320 322 325 328 331 333 334 335 337